Zurück zum Katalog

ONEWEB-0098

AktivKommunikationPO
NORAD 45442·PAYLOAD·🇬🇧 United Kingdom

Gestartet Mar 21, 2020 von Baikonur Cosmodrome

Loading…

Nächste Überflüge (nächste 24 Stunden)

TLE

AktuellSource: CelesTrak SupGP

Epoche: Sep 14, 2026, 09:38 UTC

1 45442C 20020U   26257.40189072 -.00003547  00000+0 -10022-1 0  2579
2 45442  87.8954   3.3333 0001765 101.0586 334.3361 13.11417112    13

Verfolge ONEWEB-0098 in Echtzeit mit AllMySat

Download on the App Store